CW2927 Weather Reports


time (UTC)temp
C
wind
direction
speed
KPH
gust
KPH
rain 1hr
cm
rain 24hr
cm
rain mn
cm
humidity
%
barometer
mb
20260905050704 15 14 4.8 11.3 0.00 0.00 0.00 92 1010.0
20260905050205 15 19 3.2 8.0 0.00 0.00 0.00 92 1010.0
20260905044705 15 36 3.2 4.8 0.00 0.00 0.00 92 1010.1
20260905044205 15 20 3.2 11.3 0.00 0.00 0.00 93 1010.1
20260905042705 16 7 3.2 4.8 0.00 0.00 0.00 92 1010.0
20260905042205 16 20 4.8 8.0 0.00 0.00 0.00 92 1010.0
20260905040705 16 49 3.2 4.8 0.00 0.00 0.00 92 1010.0
20260905040205 16 50 3.2 4.8 0.00 0.00 0.00 92 1010.1
20260905034705 16 51 1.6 4.8 0.00 0.00 0.00 91 1010.0
20260905034205 16 51 1.6 4.8 0.00 0.00 0.00 92 1010.0
20260905032205 16 53 3.2 12.9 0.00 0.00 0.00 91 1010.0
20260905030705 17 356 4.8 11.3 0.00 0.00 0.00 91 1010.0
20260905030205 17 3 8.0 14.5 0.00 0.00 0.00 91 1010.1
20260905024705 17 31 3.2 4.8 0.00 0.00 0.00 90 1010.0
20260905024205 17 34 3.2 4.8 0.00 0.00 0.00 90 1010.0
20260905022705 17 30 3.2 4.8 0.00 0.00 0.00 89 1009.8
20260905022205 17 4 3.2 8.0 0.00 0.00 0.00 88 1009.8
20260905020705 17 19 4.8 8.0 0.00 0.00 0.00 87 1009.6
20260905020205 18 41 3.2 8.0 0.00 0.00 0.00 87 1009.6
20260905014705 18 13 3.2 8.0 0.00 0.00 0.00 87 1009.5
20260905014205 18 17 3.2 9.7 0.00 0.00 0.00 86 1009.5
20260905012705 18 18 3.2 4.8 0.00 0.00 0.00 86 1009.4
20260905012205 18 24 3.2 11.3 0.00 0.00 0.00 85 1009.4
20260905010705 18 28 3.2 4.8 0.00 0.00 0.00 84 1009.4
20260905010205 19 20 3.2 4.8 0.00 0.00 0.00 83 1009.4
20260905004705 19 349 3.2 9.7 0.00 0.00 0.00 82 1009.5
20260905004207 20 8 4.8 8.0 0.00 0.00 0.00 82 1009.5
20260905002705 20 349 3.2 8.0 0.00 0.00 0.00 83 1009.5
20260905002204 20 284 3.2 4.8 0.00 0.00 0.00 83 1009.4
20260905000704 20 280 0.0 0.0 0.00 0.00 0.00 82 1009.2
20260905000204 20 280 0.0 4.8 0.00 0.00 0.00 82 1009.3
20260904232705 20 267 4.8 8.0 0.00 0.03 0.00 80 1009.1
20260904232204 20 269 3.2 8.0 0.00 0.03 0.00 80 1009.1
20260904230705 21 269 3.2 9.7 0.00 0.03 0.00 79 1009.0
20260904230205 21 267 3.2 9.7 0.00 0.03 0.00 79 1009.0
20260904224705 21 271 4.8 12.9 0.00 0.03 0.00 78 1008.9
20260904224204 21 277 6.4 12.9 0.00 0.03 0.00 77 1009.0
20260904222705 21 282 8.0 14.5 0.00 0.03 0.00 77 1008.9
20260904222205 21 257 8.0 12.9 0.00 0.05 0.00 77 1008.9
20260904220205 21 271 4.8 8.0 0.00 0.08 0.00 77 1008.8
20260904214705 21 273 4.8 8.0 0.00 0.08 0.00 76 1008.7
20260904214204 22 276 3.2 16.1 0.00 0.08 0.00 75 1008.7
20260904212704 22 243 4.8 9.7 0.00 0.08 0.00 72 1008.8
20260904212204 23 272 4.8 14.5 0.00 0.08 0.00 71 1008.7
20260904210705 23 278 6.4 14.5 0.00 0.08 0.00 70 1008.8
20260904210204 23 277 8.0 14.5 0.00 0.08 0.00 70 1008.8
20260904204705 23 277 6.4 11.3 0.00 0.08 0.00 70 1008.9
20260904204204 23 287 6.4 12.9 0.00 0.08 0.00 69 1008.9
20260904202705 22 266 4.8 11.3 0.00 0.08 0.00 74 1009.0
20260904202204 22 286 4.8 16.1 0.00 0.08 0.00 73 1009.0
20260904200205 22 264 3.2 11.3 0.00 0.08 0.00 73 1009.0
20260904194704 22 271 4.8 11.3 0.00 0.08 0.00 72 1009.0
20260904194204 22 280 8.0 12.9 0.00 0.08 0.00 71 1009.0
20260904192705 22 318 6.4 11.3 0.00 0.08 0.00 70 1009.0
20260904192205 22 295 4.8 9.7 0.00 0.08 0.00 69 1009.0
20260904190705 23 280 4.8 8.0 0.00 0.08 0.00 68 1009.0
20260904190205 23 310 4.8 12.9 0.00 0.08 0.00 70 1009.0
20260904184705 23 316 3.2 4.8 0.00 0.08 0.00 70 1009.1
20260904182704 22 274 4.8 11.3 0.00 0.08 0.00 71 1009.3
20260904182204 22 289 6.4 12.9 0.00 0.08 0.00 70 1009.3
20260904180704 22 307 6.4 14.5 0.00 0.08 0.00 71 1009.2
20260904174705 22 288 4.8 9.7 0.00 0.08 0.00 72 1009.2
20260904174205 22 307 4.8 12.9 0.00 0.08 0.00 72 1009.1
20260904172704 22 281 8.0 12.9 0.00 0.08 0.00 71 1009.2
20260904164704 22 282 6.4 14.5 0.00 0.08 0.00 70 1009.1
20260904164205 22 264 6.4 19.3 0.00 0.08 0.00 71 1009.2
20260904162204 22 268 4.8 12.9 0.00 0.08 0.00 75 1009.3
20260904160704 22 277 8.0 14.5 0.00 0.08 0.00 74 1009.4
20260904160205 22 275 8.0 12.9 0.00 0.08 0.00 74 1009.5
20260904154704 23 336 3.2 8.0 0.00 0.08 0.00 73 1009.5
20260904154204 22 286 4.8 9.7 0.00 0.08 0.00 74 1009.6
20260904152704 22 269 3.2 8.0 0.00 0.08 0.00 76 1009.6
20260904150204 21 286 4.8 9.7 0.00 0.08 0.00 80 1009.7
20260904144704 20 282 3.2 4.8 0.00 0.08 0.00 84 1009.7
20260904144204 20 276 4.8 9.7 0.00 0.08 0.00 85 1009.8
20260904142705 20 282 4.8 9.7 0.00 0.08 0.00 86 1009.9
20260904142204 19 295 4.8 11.3 0.00 0.08 0.00 86 1009.9
20260904140704 19 291 4.8 9.7 0.00 0.08 0.00 87 1009.9
20260904140204 19 273 4.8 9.7 0.00 0.08 0.00 87 1009.9
20260904132704 18 266 4.8 4.8 0.00 0.08 0.00 95 1009.7
20260904132204 17 277 1.6 8.0 0.00 0.08 0.00 96 1009.7
20260904130704 17 288 3.2 4.8 0.00 0.08 0.00 97 1009.8
20260904130204 17 290 1.6 4.8 0.00 0.08 0.00 97 1009.8
20260904124704 17 305 4.8 4.8 0.00 0.08 0.00 97 1009.7
20260904124204 17 59 3.2 4.8 0.00 0.08 0.00 97 1009.7
20260904122704 16 66 1.6 3.2 0.00 0.08 0.00 97 1009.7
20260904120704 16 67 0.0 0.0 0.00 0.08 0.00 97 1009.7
20260904120204 16 67 0.0 3.2 0.00 0.08 0.00 96 1009.7
20260904114704 16 67 0.0 0.0 0.00 0.08 0.00 97 1009.7
20260904114204 15 67 0.0 3.2 0.00 0.08 0.00 96 1009.6
20260904112704 15 67 1.6 1.6 0.00 0.08 0.00 96 1009.5
20260904110704 15 67 0.0 3.2 0.00 0.08 0.00 96 1009.2
20260904110204 15 66 1.6 3.2 0.00 0.08 0.00 96 1009.2
20260904104704 15 66 0.0 0.0 0.00 0.08 0.00 96 1009.2
20260904104204 15 66 0.0 0.0 0.00 0.08 0.00 96 1009.1
20260904102704 15 66 0.0 0.0 0.00 0.08 0.00 96 1009.0
20260904102204 15 66 0.0 1.6 0.00 0.08 0.00 96 1009.1
20260904100704 14 66 0.0 0.0 0.00 0.10 0.00 96 1009.0
20260904100203 14 66 0.0 0.0 0.00 0.10 0.00 96 1009.0
20260904094704 14 66 0.0 0.0 0.00 0.10 0.00 96 1008.8
20260904092703 14 66 0.0 0.0 0.00 0.10 0.00 96 1008.7
20260904090704 14 66 0.0 1.6 0.00 0.10 0.00 96 1008.5
20260904084703 14 66 0.0 0.0 0.00 0.10 0.00 96 1008.6
20260904084203 14 66 0.0 0.0 0.00 0.10 0.00 96 1008.6
20260904082703 15 66 0.0 0.0 0.00 0.10 0.00 96 1008.6
20260904082203 15 66 0.0 1.6 0.00 0.13 0.00 96 1008.7
20260904080704 15 66 0.0 0.0 0.00 0.15 0.00 96 1008.7
20260904080203 15 66 1.6 3.2 0.00 0.15 0.00 96 1008.7
20260904074706 15 66 0.0 1.6 0.00 0.15 0.00 96 1008.5
20260904074206 15 66 1.6 3.2 0.00 0.15 0.00 96 1008.5
20260904072205 15 64 0.0 1.6 0.00 0.15 0.00 95 1008.4
20260904070705 15 64 0.0 0.0 0.00 0.15 0.00 96 1008.4
20260904062705 16 64 0.0 3.2 0.00 0.15 0.00 95 1008.5
20260904062206 16 64 1.6 3.2 0.00 0.15 0.00 96 1008.5
20260904060705 16 63 0.0 0.0 0.00 0.15 0.00 95 1008.7
20260904060205 16 63 0.0 1.6 0.00 0.15 0.00 95 1008.7
20260904054205 16 63 0.0 1.6 0.00 0.15 0.00 95 1008.8
20260904052205 16 63 1.6 1.6 0.00 0.15 0.00 95 1008.9